Miscellaneous Local Product
Issued by NWS North Platte, NE

Home | Current Version | Previous Version | Graphics & Text | Print | Product List | Glossary On
Versions: 1 2 3 4 5 6 7 8 9 10 11 12 13 14 15 16 17 18 19 20 21 22 23 24 25 26 27 28 29 30 31 32 33 34 35 36 37 38 39 40 41 42 43 44 45 46 47 48 49 50
000
AXUS43 KLBF 022210
MISLBF


WESTERN AND NORTH CENTRAL NEBRASKA HOURLY WEATHER ROUNDUP
NATIONAL WEATHER SERVICE NORTH PLATTE NE
500 PM CDT THU JUL 02 2015

***STATIONS NOT REPORTING VARIABLES SUCH AS SKY/WEATHER OR
PRESSURE ARE PROVIDED BY THE NEBRASKA DEPARTMENT OF
ROADS...RAWS...AND APRS NETWORKS...AND ARE NOT UNDER
NATIONAL WEATHER SERVICE QUALITY CONTROL***

...OBSERVATIONS IN AND NEAR THE EASTERN PANHANDLE OF NEBRASKA...

CITY           SKY/WX    TMP DP  RH WIND       PRES   REMARKS
PINE RIDGE     SUNNY     79  56  45 N13       30.07S
CHADRON        MOSUNNY   81  60  48 NE6       30.07F
ALLIANCE       MOSUNNY   80  60  50 NE10      30.10S
SIDNEY         SUNNY     83  55  38 N9G22     30.13F
WHITECLAY        N/A     79  55  44 E7          N/A
CRESCENT LAKE    N/A     79  56  45 NE8G18      N/A
BIG SPRINGS      N/A     83  58  42 N7          N/A
$$

...OBSERVATIONS IN NORTH CENTRAL NEBRASKA...

CITY           SKY/WX    TMP DP  RH WIND       PRES   REMARKS
VALENTINE      MOSUNNY   80  57  45 N10G20    30.01F
THEDFORD       MOSUNNY   80  56  43 N13G23    30.04R
AINSWORTH      MOSUNNY   79  59  49 N16G24    30.01S
O`NEILL        PTSUNNY   74  66  75 NE8       29.98S
ORD            SUNNY     82  60  47 N18G28    29.93S
BROKEN BOW     MOSUNNY   83  58  42 N18G26    29.97S
VALENTINE NWR    N/A     80  57  45 N12G22      N/A
SPRINGVIEW       N/A     77  62  59 NW7         N/A
HALSEY           N/A     80  55  42 N10G23      N/A
BREWSTER         N/A     86  58  38 N20         N/A
ROSE             N/A     89  74  62 N13         N/A  HX  98
NEWPORT          N/A     77  66  69 NE12        N/A
SARGENT          N/A     81  63  53 NE3G12      N/A
CHAMBERS         N/A     75  66  74 N6G13       N/A
EWING            N/A     72  66  80 NE7G14      N/A
$$

...OBSERVATIONS IN SOUTHWEST NEBRASKA AND FAR NORTHEAST COLORADO...

CITY           SKY/WX    TMP DP  RH WIND       PRES   REMARKS
WRAY           FAIR      88  54  30 N12G17    30.08S
HOLYOKE        FAIR      88  54  31 N16G23    30.09S
IMPERIAL       MOSUNNY   86  56  35 N12       30.05F
OGALLALA       SUNNY     81  61  49 N17       30.06S
NORTH PLATTE   MOSUNNY   80  60  50 N12       30.01S
MCCOOK         MOSUNNY   88  59  37 N8        29.99S
LEXINGTON      MOSUNNY   84  64  51 N17       29.98S
PAXTON           N/A     82  63  52 N9          N/A
GOTHENBURG       N/A     82  55  38 N12         N/A
CALLAWAY         N/A     81  63  54 N13         N/A
$$

...NORTH PLATTE AREA...

CITY           SKY/WX    TMP DP  RH WIND       PRES   REMARKS
AIRPORT        MOSUNNY   80  60  50 N12       30.01S
DOWNTOWN         N/A     80  62  53 N8          N/A
HILLCREST        N/A     80  60  50 N14G21      N/A
$$

...SOME WEATHER OBSERVATIONS FROM AROUND THE REGION...

CITY           SKY/WX    TMP DP  RH WIND       PRES   REMARKS
DENVER         MOSUNNY   83  49  30 E6        30.17F
LARAMIE        MOSUNNY   77  43  29 CALM      30.26F
CHEYENNE       MOSUNNY   79  51  37 NE13G20   30.21F
SCOTTSBLUFF    MOSUNNY   81  53  37 NE12      30.10F
RAPID CITY     MOSUNNY   80  58  46 NW20G28   30.07S
PIERRE         PTSUNNY   78  64  61 VRB3      29.96S
WINNER         FAIR      80  59  48 N15G22    29.98F
SIOUX FALLS    LGT RAIN  69  58  67 CALM      30.00S
OMAHA          CLOUDY    70  65  84 E7        29.96S HAZE
GRAND ISLAND   MOSUNNY   75  67  76 SE5       29.92S
KANSAS CITY    LGT RAIN  70  67  90 E8        29.94R FOG
WICHITA        LGT RAIN  76  71  85 N6        29.96S
HAYS           MOSUNNY   84  63  48 W6        29.97F
LIBERAL        PTSUNNY   90  63  40 NE7       29.99F HX  90
GOODLAND       SUNNY     86  57  37 N16G23    30.06F
$$



USA.gov is the U.S. government's official web portal to all federal, state and local government web resources and services.